TimeCDT,TemperatureF,Dew PointF,Humidity,Sea Level PressureIn,VisibilityMPH,Wind Direction,Wind SpeedMPH,Gust SpeedMPH,PrecipitationIn,Events,Conditions,WindDirDegrees,DateUTC
12:52 AM,72.0,64.9,78,29.88,10.0,SE,10.4,-,N/A,,Clear,140,2013-08-18 05:52:00
1:52 AM,71.1,64.9,81,29.88,10.0,South,11.5,-,N/A,,Clear,170,2013-08-18 06:52:00
2:52 AM,72.0,66.0,81,29.86,10.0,South,10.4,-,N/A,,Clear,170,2013-08-18 07:52:00
3:52 AM,69.1,64.9,87,29.85,10.0,South,6.9,-,N/A,,Clear,170,2013-08-18 08:52:00
4:52 AM,66.9,64.9,93,29.86,10.0,SSE,3.5,-,N/A,,Clear,150,2013-08-18 09:52:00
5:52 AM,66.0,64.0,93,29.85,10.0,SSE,9.2,-,N/A,,Clear,160,2013-08-18 10:52:00
6:52 AM,64.0,63.0,96,29.88,6.0,Calm,Calm,-,N/A,,Clear,0,2013-08-18 11:52:00
7:52 AM,66.0,64.0,93,29.89,6.0,Calm,Calm,-,N/A,,Clear,0,2013-08-18 12:52:00
8:52 AM,71.1,64.9,81,29.89,10.0,SW,4.6,-,N/A,,Clear,220,2013-08-18 13:52:00
9:52 AM,73.0,66.0,79,29.89,10.0,SW,5.8,-,N/A,,Clear,230,2013-08-18 14:52:00
10:52 AM,78.1,66.9,68,29.86,10.0,Variable,3.5,-,N/A,,Clear,0,2013-08-18 15:52:00
11:52 AM,81.0,66.9,62,29.88,10.0,SSE,3.5,-,N/A,,Clear,160,2013-08-18 16:52:00
12:52 PM,82.0,68.0,62,29.89,10.0,South,12.7,-,N/A,,Partly Cloudy,190,2013-08-18 17:52:00
1:52 PM,82.9,66.9,58,29.91,10.0,SW,8.1,-,N/A,,Clear,230,2013-08-18 18:52:00
2:52 PM,88.0,64.9,46,29.91,10.0,NW,13.8,-,N/A,,Clear,310,2013-08-18 19:52:00
3:52 PM,89.1,59.0,36,29.88,10.0,North,12.7,-,N/A,,Clear,350,2013-08-18 20:52:00
4:52 PM,90.0,55.9,31,29.86,10.0,North,6.9,-,N/A,,Clear,10,2013-08-18 21:52:00
5:52 PM,87.1,55.0,33,29.86,10.0,NNE,12.7,-,N/A,,Clear,20,2013-08-18 22:52:00
6:52 PM,87.1,57.9,37,29.86,10.0,NE,10.4,-,N/A,,Clear,40,2013-08-18 23:52:00
7:52 PM,82.0,51.1,34,29.88,10.0,North,12.7,-,N/A,,Clear,360,2013-08-19 00:52:00
8:52 PM,78.1,55.9,46,29.89,10.0,North,17.3,-,0.00,,Overcast,10,2013-08-19 01:52:00
9:10 PM,78.1,57.9,50,29.89,10.0,ENE,15.0,-,0.00,Rain,Light Rain,70,2013-08-19 02:10:00
9:33 PM,72.0,64.0,76,29.90,6.0,NE,11.5,-,0.03,Rain-Thunderstorm,Thunderstorms and Rain,40,2013-08-19 02:33:00
9:52 PM,70.0,64.0,81,29.87,7.0,East,17.3,20.7,0.08,Rain-Thunderstorm,Light Rain,100,2013-08-19 02:52:00
10:04 PM,69.1,63.0,81,29.89,10.0,ESE,10.4,-,0.01,Rain,Light Rain,120,2013-08-19 03:04:00
10:52 PM,68.0,63.0,84,29.89,10.0,Variable,3.5,-,0.01,,Clear,0,2013-08-19 03:52:00
11:52 PM,68.0,64.0,87,29.90,10.0,NW,3.5,-,N/A,,Clear,310,2013-08-19 04:52:00